x

Ilm3 - 27 Miles Se Of Wrightsville Beach, Nc (41037) Weather Station

9:08 - Thu 8th Dec 2016 All times are EST. -5 hours from GMT.

  • Wind
    20mph, 29mph gusts
  • Sea Temp 66°f
  • Aire Temp 54°f
  • Sea Pressure 1021.6mb
  • Ilm3 - 27 Miles Se Of Wrightsville Beach, Nc
  • Ilm3 - 27 Miles Se Of Wrightsville Beach, Nc

More Historic Weather Station data

Upgrade to MSW Pro to gain access to the past 30 days of data for over 8000 Wavebouys and Weather Stations around the globe.

Join Pro

Comparision Forecast

View Surf forecast
   
jue 12/08 9:08 20 29 mph 1021.6mb 66f 54f
8:08 20 27 mph 1021.3mb 66f 55f
7:08 20 29 mph 1020.6mb 66f 56f
6:08 20 27 mph 1019.4mb 67f 57f
5:08 18 27 mph 1018.2mb 67f 58f
4:08 20 29 mph 1016.8mb 68f 59f
3:08 16 22 mph 1016.3mb 68f 60f
2:08 16 25 mph 1016.5mb 68f 59f
1:08 13 20 mph 1016.8mb 68f 58f
12:08 16 22 mph 1017.3mb 67f 57f
11:08 16 22 mph 1018.2mb 67f 57f
10:08 18 25 mph 1018.7mb 67f 58f
9:08 16 22 mph 1018mb 67f 59f
8:08 13 20 mph 1017.6mb 67f 58f
7:08 16 20 mph 1017.5mb 67f 58f
6:08 16 20 mph 1017.3mb 68f 60f
5:08 11 18 mph 1017mb 69f 61f
4:08 4 7 mph 1017mb 69f 60f
3:08 7 11 mph 1017.4mb 69f 60f
2:08 7 13 mph 1017.6mb 70f 60f
1:08 7 11 mph 1017.7mb 70f 60f
12:08 4 9 mph 1017.8mb 69f 60f
mié 12/07 11:08 2 7 mph 1018.1mb 69f 60f
10:08 2 4 mph 1018.1mb 69f 60f
9:08 2 9 mph 1018.2mb 67f 60f
8:08 2 4 mph 1018.5mb 68f 59f
7:08 4 9 mph 1018.2mb 68f 59f
6:08 4 9 mph 1017.8mb 68f 58f
5:08 4 9 mph 1017.4mb 68f 58f
4:08 7 11 mph 1017.1mb 68f 58f
3:08 9 16 mph 1016.6mb 67f 58f
2:08 7 13 mph 1016.5mb 67f 57f
1:08 13 20 mph 1016.1mb 68f 56f
12:08 16 22 mph 1016.5mb 68f 55f
11:08 16 22 mph 1017mb 68f 53f
10:08 13 22 mph 1017.5mb 68f 53f
9:08 18 25 mph 1016.9mb 68f 52f
8:08 20 29 mph 1016.2mb 67f 51f
7:08 18 29 mph 1015.2mb 67f 52f
6:08 18 27 mph 1014.2mb 67f 52f
5:08 20 29 mph 1013.2mb 67f 53f
4:08 18 29 mph 1012.3mb 67f 54f
3:08 20 29 mph 1011.6mb 67f 55f
2:08 18 27 mph 1010.9mb 67f 56f
1:08 20 29 mph 1010mb 68f 56f
12:08 22 29 mph 1010.2mb 68f 56f
mar 12/06 11:08 22 29 mph 1009.6mb 68f 57f
10:08 22 29 mph 1008.9mb 68f 58f
9:08 22 29 mph 1008.4mb 67f 60f
7:08 25 34 mph 1005.8mb 67f 65f
6:08 22 34 mph 1004.9mb 68f 66f
5:08 16 22 mph 1004mb 68f 67f
4:08 13 20 mph 1003.3mb 69f 68f
3:08 13 20 mph 1003mb 69f 68f
2:08 16 25 mph 1003.3mb 69f 68f
1:08 11 18 mph 1003.6mb 70f 68f
12:08 16 25 mph 1006.1mb 70f 69f
11:08 18 25 mph 1007mb 69f 70f
10:08 25 34 mph 1008.4mb 68f 68f
9:08 27 38 mph 1008.3mb 68f 68f
8:08 25 31 mph 1010mb 68f 67f
7:08 27 34 mph 1010.8mb 67f 64f
6:08 25 34 mph 1011.4mb 67f 62f
4:08 27 36 mph 1013.1mb 67f 59f
3:08 25 31 mph 1014.4mb 67f 59f
2:08 22 31 mph 1015.3mb 67f 59f
1:08 22 29 mph 1015.2mb 68f 60f
12:08 20 29 mph 1015mb 68f 60f
lun 12/05 11:08 22 31 mph 1015.4mb 68f 59f
10:08 22 29 mph 1016mb 68f 60f
9:08 18 25 mph 1016.5mb 67f 62f
8:08 16 25 mph 1016.4mb 67f 61f
7:08 18 27 mph 1015.9mb 67f 61f
6:08 18 27 mph 1015.2mb 66f 61f
5:08 16 22 mph 1015mb 66f 60f
4:08 16 22 mph 1014.7mb 66f 60f
3:08 13 18 mph 1014.5mb 67f 59f
2:08 18 25 mph 1014mb 68f 58f
1:08 16 25 mph 1014.5mb 68f 57f
12:08 16 22 mph 1015.6mb 68f 56f
11:08 18 25 mph 1015.5mb 68f 57f
10:08 18 27 mph 1014.2mb 67f 57f
9:08 18 25 mph 1013.7mb 67f 59f
8:08 18 27 mph 1012.2mb 67f 62f
7:08 20 27 mph 1012.1mb 67f 62f
6:08 25 31 mph 1011.7mb 67f 71f
5:08 25 34 mph 1012.1mb 67f 70f
4:08 25 34 mph 1012.7mb 68f 71f